Winnipeg, Manitoba

10:52 AM CST on January 24, 2017 (GMT -0600)
Winnipeg International Airport

Weather History for CYWG - July, 2013

Change the Weather History Date:

Friday, July 5, 2013

  Actual Average Record
Temperature  
Mean Temperature 71 °F -  
Max Temperature 82 °F 79 °F 89 °F (2014)
Min Temperature 60 °F 56 °F 41 °F (2001)
Cooling Degree Days 6    
Growing Degree Days 21 (Base 50)    
Moisture  
Dew Point 60 °F    
Average Humidity 67    
Maximum Humidity 94    
Minimum Humidity 30    
Precipitation  
Precipitation 0.00 in 0.10 in - ()
Sea Level Pressure  
Sea Level Pressure 29.73 in    
Wind  
Wind Speed 6 mph ()    
Max Wind Speed 12 mph    
Max Gust Speed -    
Visibility 11.1 miles    
Events      
Averages and records for this station are not official NWS values.
T = Trace of Precipitation, MM = Missing Value Source: Averaged Metar Reports

Daily Weather History Graph

Daily Weather History Graph

Search for Another Location

Airport or City:

Trip Planner

Search our weather history database for the weather conditions in past years. The results will help you decide how hot, cold, wet, or windy it might be!

Date:

Astronomy

Jul. 05, 2013 Rise Set
Actual Time 5:27 AM CDT 9:39 PM CDT
Civil Twilight 4:44 AM CDT 10:22 PM CDT
Nautical Twilight 3:41 AM CDT 11:24 PM CDT
Astronomical Twilight 2:05 AM CDT 1:01 AM CDT
Moon 3:34 AM CDT (7/5) 7:29 PM CDT (7/5)
Length of Visible Light 17h 38m
Length of Day
16h 11m
Waning Crescent, 6% of the Moon is Illuminated
Jul 5
Waning Crescent
Jul 8
New
Jul 15
First Quarter
Jul 22
Full
Jul 29
Last Quarter

Hourly Weather History & Observations

Time (CDT) Temp. Heat Index Dew Point Humidity Pressure Visibility Wind Dir Wind Speed Gust Speed Precip Events Conditions
12:00 AM 68.0 °F - 64.4 °F 88% 29.70 in 15.0 mi North 6.9 mph - N/A   Partly Cloudy
1:00 AM 69 °F - 65 °F 85% 29.70 in 9 mi Calm Calm - -  
1:00 AM 69.8 °F - 64.4 °F 83% 29.70 in 15.0 mi North 8.1 mph - N/A   Partly Cloudy
2:00 AM 66.2 °F - 64.4 °F 94% 29.70 in 15.0 mi North 8.1 mph - N/A   Scattered Clouds
3:00 AM 64.4 °F - 62.6 °F 94% 29.71 in 15.0 mi NNW 5.8 mph - N/A   Scattered Clouds
4:00 AM 64.4 °F - 62.6 °F 94% 29.71 in 15.0 mi North 3.5 mph - N/A   Scattered Clouds
5:00 AM 62.6 °F - 59.0 °F 88% 29.70 in 15.0 mi North 4.6 mph - N/A   Scattered Clouds
6:00 AM 60.8 °F - 59.0 °F 94% 29.72 in 15.0 mi NNW 6.9 mph - N/A   Partly Cloudy
7:00 AM 65 °F - 62 °F 86% 29.71 in 9 mi Calm Calm - -  
7:00 AM 64.4 °F - 59.0 °F 83% 29.72 in 15.0 mi North 3.5 mph - N/A   Partly Cloudy
8:00 AM 69.8 °F - 60.8 °F 73% 29.73 in 15.0 mi North 6.9 mph - N/A   Scattered Clouds
9:00 AM 73.4 °F - 60.8 °F 65% 29.73 in 15.0 mi North 9.2 mph - N/A   Clear
10:00 AM 77.0 °F - 60.8 °F 57% 29.74 in 15.0 mi North 10.4 mph - N/A   Scattered Clouds
11:00 AM 77.0 °F - 60.8 °F 57% 29.74 in 15.0 mi North 10.4 mph - N/A   Mostly Cloudy
12:00 PM 78.8 °F - 57.2 °F 47% 29.75 in 12.0 mi North 10.4 mph - N/A   Mostly Cloudy
1:00 PM 81 °F - 55 °F 30% 29.74 in 7 mi Calm Calm - -  
1:00 PM 80.6 °F 80.3 °F 53.6 °F 39% 29.74 in 8.0 mi North 9.2 mph - N/A   Mostly Cloudy
2:00 PM 80.6 °F 80.8 °F 57.2 °F 45% 29.73 in 8.0 mi NNW 8.1 mph - N/A   Mostly Cloudy
3:00 PM 82.4 °F 82.0 °F 57.2 °F 42% 29.74 in 8.0 mi NNW 9.2 mph - N/A   Mostly Cloudy
4:00 PM 82.4 °F - 50.0 °F 32% 29.73 in 8.0 mi NNW 6.9 mph - N/A   Partly Cloudy
5:00 PM 82.4 °F 81.7 °F 55.4 °F 39% 29.74 in 8.0 mi North 11.5 mph - N/A   Partly Cloudy
6:00 PM 80.6 °F 80.5 °F 55.4 °F 42% 29.74 in 8.0 mi North 10.4 mph - N/A   Partly Cloudy
7:00 PM 78 °F - 62 °F 49% 29.74 in 7 mi Calm Calm - -   Unknown Precipitation
7:00 PM 78.8 °F - 60.8 °F 54% 29.74 in 8.0 mi NNW 6.9 mph - N/A   Partly Cloudy
8:00 PM 75.2 °F - 62.6 °F 65% 29.74 in 8.0 mi NNW 5.8 mph - N/A   Partly Cloudy
9:00 PM 68.0 °F - 62.6 °F 83% 29.75 in 8.0 mi NW 8.1 mph - N/A   Partly Cloudy
10:00 PM 66.2 °F - 60.8 °F 83% 29.76 in 8.0 mi NW 4.6 mph - N/A   Partly Cloudy
11:00 PM 66.2 °F - 59.0 °F 78% 29.77 in 8.0 mi West 3.5 mph - N/A   Scattered Clouds